Hourly Weather Barkowo

Today, 26 September, Saturday

Time Temperature Precipitation Wind Pressure Humidity
00:00 +12°C° 0 mm 2 mps 744 mmHg 90%
01:00 +12°C° 0 mm 1 mps 744 mmHg 90%
02:00 +12°C° 0 mm 2 mps 744 mmHg 90%
03:00 +12°C° 0 mm 2 mps 744 mmHg 90%
04:00 +12°C° 0 mm 2 mps 743 mmHg 90%
05:00 +11°C° 0 mm 3 mps 743 mmHg 90%
06:00 +12°C° 0 mm 4 mps 743 mmHg 89%
07:00 +13°C° 0 mm 4 mps 743 mmHg 89%
08:00 +13°C° 0.3 mm 5 mps 742 mmHg 90%
09:00 +14°C° 0.3 mm 6 mps 742 mmHg 90%
10:00 +14°C° 0.3 mm 7 mps 742 mmHg 91%
11:00 +14°C° 0.5 mm 6 mps 742 mmHg 92%
12:00 +15°C° 0.5 mm 6 mps 741 mmHg 93%
13:00 +16°C° 0.5 mm 6 mps 740 mmHg 94%
14:00 +16°C° 0.1 mm 6 mps 740 mmHg 90%
15:00 +17°C° 0.1 mm 6 mps 740 mmHg 87%
16:00 +19°C° 0.1 mm 6 mps 740 mmHg 83%
17:00 +17°C° 0.3 mm 6 mps 740 mmHg 85%
18:00 +17°C° 0.3 mm 6 mps 741 mmHg 87%
19:00 +17°C° 0.3 mm 6 mps 741 mmHg 89%
20:00 +15°C° 0 mm 5 mps 742 mmHg 91%
21:00 +14°C° 0 mm 4 mps 743 mmHg 92%
22:00 +13°C° 0 mm 4 mps 744 mmHg 93%
23:00 +12°C° 0 mm 3 mps 745 mmHg 93%

Tomorrow, 27 September, Sunday

Time Temperature Precipitation Wind Pressure Humidity
00:00 +12°C° 0 mm 3 mps 745 mmHg 93%
01:00 +12°C° 0 mm 2 mps 746 mmHg 94%
02:00 +12°C° 0.1 mm 2 mps 746 mmHg 93%
03:00 +12°C° 0.1 mm 2 mps 746 mmHg 92%
04:00 +12°C° 0.1 mm 2 mps 746 mmHg 91%
05:00 +11°C° 1 mm 3 mps 746 mmHg 92%
06:00 +11°C° 1 mm 3 mps 746 mmHg 93%
07:00 +11°C° 1 mm 3 mps 746 mmHg 95%
08:00 +12°C° 0.2 mm 3 mps 746 mmHg 93%
09:00 +13°C° 0.2 mm 3 mps 746 mmHg 91%
10:00 +16°C° 0.2 mm 3 mps 746 mmHg 89%
11:00 +15°C° 0.1 mm 4 mps 746 mmHg 88%
12:00 +17°C° 0.1 mm 4 mps 746 mmHg 86%
13:00 +18°C° 0.1 mm 4 mps 746 mmHg 85%
14:00 +17°C° 0.2 mm 4 mps 746 mmHg 85%
15:00 +17°C° 0.2 mm 4 mps 746 mmHg 84%
16:00 +17°C° 0.2 mm 4 mps 746 mmHg 84%
17:00 +16°C° 0.1 mm 3 mps 747 mmHg 86%
18:00 +16°C° 0.1 mm 3 mps 747 mmHg 88%
19:00 +14°C° 0.1 mm 3 mps 747 mmHg 90%
20:00 +14°C° 0 mm 3 mps 747 mmHg 89%
21:00 +13°C° 0 mm 3 mps 748 mmHg 88%
22:00 +13°C° 0 mm 3 mps 748 mmHg 87%
23:00 +13°C° 0 mm 3 mps 748 mmHg 88%

Day after tomorrow, 28 September, Monday

Time Temperature Precipitation Wind Pressure Humidity
00:00 +13°C° 0 mm 3 mps 749 mmHg 89%
01:00 +13°C° 0 mm 3 mps 749 mmHg 90%
02:00 +13°C° 0 mm 3 mps 749 mmHg 91%
03:00 +12°C° 0 mm 3 mps 749 mmHg 93%
04:00 +11°C° 0 mm 3 mps 749 mmHg 94%
05:00 +11°C° 0 mm 3 mps 750 mmHg 93%
06:00 +11°C° 0 mm 4 mps 750 mmHg 91%
07:00 +11°C° 0 mm 4 mps 750 mmHg 90%
08:00 +11°C° 0 mm 4 mps 751 mmHg 88%
09:00 +12°C° 0 mm 5 mps 751 mmHg 85%
10:00 +12°C° 0 mm 5 mps 752 mmHg 83%
11:00 +13°C° 0 mm 5 mps 752 mmHg 77%
12:00 +14°C° 0 mm 6 mps 752 mmHg 70%
13:00 +15°C° 0 mm 6 mps 753 mmHg 64%
14:00 +16°C° 0 mm 5 mps 753 mmHg 63%
15:00 +16°C° 0 mm 5 mps 753 mmHg 61%
16:00 +17°C° 0 mm 4 mps 753 mmHg 60%
17:00 +15°C° 0 mm 4 mps 753 mmHg 64%
18:00 +13°C° 0 mm 3 mps 754 mmHg 68%
19:00 +12°C° 0 mm 3 mps 754 mmHg 72%
20:00 +11°C° 0 mm 3 mps 754 mmHg 74%
21:00 +11°C° 0 mm 3 mps 754 mmHg 77%
22:00 +11°C° 0 mm 3 mps 754 mmHg 79%
23:00 +10°C° 0 mm 3 mps 755 mmHg 83%

29 September, Tuesday

Time Temperature Precipitation Wind Pressure Humidity
00:00 +10°C° 0 mm 3 mps 755 mmHg 86%
01:00 +10°C° 0 mm 2 mps 755 mmHg 89%
02:00 +10°C° 0 mm 2 mps 755 mmHg 91%
03:00 +10°C° 0 mm 2 mps 755 mmHg 92%
04:00 +10°C° 0 mm 2 mps 755 mmHg 93%
05:00 +10°C° 0 mm 2 mps 755 mmHg 92%
06:00 +11°C° 0 mm 1 mps 755 mmHg 92%
07:00 +11°C° 0 mm 1 mps 755 mmHg 91%
08:00 +13°C° 0 mm 1 mps 755 mmHg 83%
09:00 +14°C° 0 mm 1 mps 755 mmHg 76%
10:00 +16°C° 0 mm 1 mps 756 mmHg 68%
11:00 +18°C° 0 mm 1 mps 756 mmHg 65%
12:00 +19°C° 0 mm 1 mps 756 mmHg 62%
13:00 +20°C° 0 mm 1 mps 756 mmHg 59%
14:00 +20°C° 0 mm 1 mps 756 mmHg 61%
15:00 +19°C° 0 mm 1 mps 756 mmHg 63%
16:00 +18°C° 0 mm 2 mps 756 mmHg 64%
17:00 +17°C° 0 mm 2 mps 756 mmHg 72%
18:00 +15°C° 0 mm 2 mps 756 mmHg 79%
19:00 +14°C° 0 mm 2 mps 756 mmHg 86%
20:00 +13°C° 0 mm 1 mps 757 mmHg 87%
21:00 +13°C° 0 mm 1 mps 757 mmHg 88%
22:00 +13°C° 0 mm 1 mps 757 mmHg 88%
23:00 +13°C° 0 mm 1 mps 757 mmHg 89%

30 September, Wednesday

Time Temperature Precipitation Wind Pressure Humidity
00:00 +13°C° 0 mm 1 mps 757 mmHg 89%
01:00 +13°C° 0 mm 1 mps 757 mmHg 90%
02:00 +13°C° 0 mm 1 mps 756 mmHg 90%
03:00 +13°C° 0 mm 1 mps 756 mmHg 91%
04:00 +13°C° 0 mm 2 mps 756 mmHg 91%
05:00 +13°C° 0 mm 1 mps 756 mmHg 91%
06:00 +13°C° 0 mm 1 mps 756 mmHg 91%
07:00 +14°C° 0 mm 1 mps 756 mmHg 90%
08:00 +15°C° 0 mm 1 mps 756 mmHg 84%
09:00 +18°C° 0 mm 1 mps 757 mmHg 78%
10:00 +18°C° 0 mm 2 mps 757 mmHg 71%
11:00 +18°C° 0.2 mm 2 mps 756 mmHg 71%
12:00 +18°C° 0.2 mm 3 mps 756 mmHg 72%
13:00 +18°C° 0.2 mm 3 mps 756 mmHg 72%
14:00 +18°C° 0.1 mm 3 mps 756 mmHg 75%
15:00 +17°C° 0.1 mm 3 mps 756 mmHg 78%
16:00 +17°C° 0.1 mm 3 mps 755 mmHg 81%
17:00 +16°C° 0 mm 3 mps 755 mmHg 84%
18:00 +16°C° 0 mm 2 mps 755 mmHg 87%
19:00 +15°C° 0 mm 2 mps 755 mmHg 90%
20:00 +15°C° 0 mm 2 mps 755 mmHg 91%
21:00 +15°C° 0 mm 2 mps 755 mmHg 92%
22:00 +14°C° 0 mm 2 mps 755 mmHg 93%
23:00 +14°C° 0 mm 1 mps 755 mmHg 93%

1 October, Thursday

Time Temperature Precipitation Wind Pressure Humidity
00:00 +14°C° 0 mm 1 mps 754 mmHg 94%
01:00 +14°C° 0 mm 1 mps 754 mmHg 94%
02:00 +14°C° 0 mm 1 mps 754 mmHg 94%
03:00 +14°C° 0 mm 1 mps 754 mmHg 94%
04:00 +14°C° 0 mm 1 mps 753 mmHg 94%
05:00 +14°C° 0 mm 1 mps 753 mmHg 95%
06:00 +14°C° 0 mm 1 mps 753 mmHg 95%
07:00 +14°C° 0 mm 1 mps 753 mmHg 96%
08:00 +15°C° 0 mm 1 mps 753 mmHg 89%
09:00 +16°C° 0 mm 2 mps 752 mmHg 83%
10:00 +17°C° 0 mm 2 mps 752 mmHg 76%
11:00 +18°C° 0 mm 2 mps 752 mmHg 75%
12:00 +18°C° 0 mm 2 mps 751 mmHg 74%
13:00 +19°C° 0 mm 3 mps 751 mmHg 72%
14:00 +18°C° 0.1 mm 3 mps 751 mmHg 75%
15:00 +17°C° 0.1 mm 3 mps 750 mmHg 79%
16:00 +17°C° 0.1 mm 3 mps 750 mmHg 82%
17:00 +16°C° 0.3 mm 3 mps 750 mmHg 86%
18:00 +15°C° 0.3 mm 2 mps 750 mmHg 89%
19:00 +15°C° 0.3 mm 2 mps 749 mmHg 93%
20:00 +14°C° 0.4 mm 2 mps 749 mmHg 93%
21:00 +14°C° 0.4 mm 2 mps 749 mmHg 94%
22:00 +14°C° 0.4 mm 2 mps 749 mmHg 94%
23:00 +14°C° 0.2 mm 2 mps 748 mmHg 94%
Show more